Theta_e
355 358 360 360 360 359 359 359 359 358 358 357 356 354 354 355 355 355 356 355 355 356 356 357 356 355 354 353 353 354 352 353 354 356 357 357 357 355 355 355 354 355 356 356 355 356 355 354 355 355 353 353 352 350 349 346 346 345 347 348 347 347 347 348 355 358 353 353 356 358 358 357 357 358 358 357 354 355 356 354 353 352 345 338 333
358 361 362 361 361 359 358 359 359 359 357 356 357 357 356 357 357 357 356 355 355 354 354 356 355 354 354 353 354 353 351 352 356 357 356 356 356 355 355 355 355 356 356 356 356 356 355 354 355 356 355 352 352 352 351 348 347 346 345 346 346 347 347 347 351 355 354 355 355 357 359 359 357 358 359 357 355 355 356 356 354 351 348 345 341
359 362 362 362 361 359 359 360 359 359 357 356 356 356 356 356 356 356 356 354 355 353 354 356 355 354 354 354 354 353 352 354 356 358 357 356 356 355 356 356 356 356 355 355 356 356 354 354 354 355 355 353 351 352 353 351 349 347 345 345 345 346 346 347 348 350 351 353 356 357 357 357 356 357 359 357 356 355 356 357 355 352 350 350 349
360 361 361 360 360 359 359 360 359 358 357 356 356 355 355 356 354 355 355 355 356 355 354 355 355 354 354 354 353 354 353 354 355 356 356 356 356 355 356 356 355 355 355 355 356 354 352 352 352 354 355 353 352 353 354 354 352 351 350 348 346 346 346 346 346 347 347 350 356 357 355 355 354 354 355 354 356 356 356 357 355 354 352 351 352
361 362 360 359 359 358 358 358 358 357 357 356 356 355 355 355 354 355 356 356 356 356 354 354 354 353 353 353 353 356 357 355 353 354 356 356 356 356 356 355 354 355 355 356 355 353 352 352 352 354 355 353 353 355 355 355 355 355 355 352 351 350 349 348 347 347 347 349 353 354 356 355 354 353 353 353 353 354 356 357 355 354 353 352 352
361 361 359 359 357 356 356 357 357 356 356 356 355 356 355 355 355 355 356 356 356 355 355 353 353 353 353 353 355 356 356 353 351 354 356 356 355 354 354 355 356 356 356 355 354 352 351 351 351 353 354 353 354 357 356 356 357 357 356 354 354 353 352 352 351 350 350 350 352 354 358 357 354 352 354 355 353 353 355 356 354 353 353 352 351
361 360 359 358 356 357 356 356 357 357 356 356 355 355 355 354 354 355 354 355 355 354 354 352 352 353 353 354 356 355 353 353 353 354 355 354 353 352 353 355 356 357 356 354 352 351 351 351 351 352 354 355 356 356 357 358 358 356 356 357 356 355 353 352 353 352 351 351 351 352 357 359 356 353 355 356 354 354 354 354 354 353 354 352 350
361 359 359 358 356 356 354 353 355 356 357 356 355 354 353 353 353 353 354 354 353 353 352 351 351 353 355 357 357 356 354 355 355 354 354 355 355 355 355 356 357 357 357 355 353 353 352 351 352 352 352 355 356 356 358 358 358 356 356 357 356 354 353 354 356 355 353 353 352 352 356 359 355 352 355 356 355 355 355 354 354 354 353 352 351
359 359 359 359 357 356 354 353 355 357 356 354 354 353 351 352 353 353 353 352 351 351 351 352 353 354 356 357 356 355 354 355 355 355 357 358 358 357 356 357 358 357 357 357 355 355 354 352 352 352 352 356 357 357 358 358 358 358 358 357 357 355 355 356 358 358 356 356 356 355 357 358 354 352 355 356 356 357 357 355 354 352 351 351 350
360 360 359 360 359 358 357 357 357 356 355 354 354 352 352 352 352 351 352 352 351 351 353 354 355 355 355 354 353 354 354 355 355 355 357 358 357 357 357 356 356 356 356 356 356 356 355 354 353 353 353 354 356 357 357 357 357 357 357 357 358 357 356 356 358 358 357 358 358 356 356 356 353 352 354 356 357 357 357 355 352 349 349 350 350
361 359 359 360 360 359 359 359 358 355 355 354 353 353 353 353 352 352 352 351 351 353 354 355 355 355 354 352 352 354 355 355 355 354 354 355 355 356 357 355 355 355 354 355 355 356 356 356 357 357 355 354 354 355 356 355 355 355 355 355 356 356 356 356 358 357 357 357 358 357 357 357 355 353 353 354 355 356 356 354 351 347 347 349 349
361 361 361 361 360 360 359 359 357 355 355 355 354 353 354 353 352 353 352 351 352 353 354 355 355 354 352 352 353 354 354 354 354 354 355 355 354 354 355 355 356 355 354 355 355 355 355 356 357 357 357 356 356 355 355 355 354 354 354 354 354 355 354 354 355 355 355 357 357 356 356 358 358 357 354 352 352 353 352 351 348 346 347 348 348
362 361 361 359 360 360 358 358 356 355 355 355 353 354 354 353 353 353 353 352 352 353 353 353 354 353 352 352 352 354 353 352 353 352 353 353 352 352 353 353 355 355 355 356 356 355 355 355 356 355 355 357 356 355 355 356 356 355 354 354 353 353 354 353 351 351 352 354 355 355 355 357 358 357 357 355 353 352 351 348 346 345 346 348 348
360 360 358 358 359 358 357 357 356 355 355 355 355 355 354 353 353 352 352 352 352 352 352 351 351 351 351 352 353 353 351 351 350 350 349 349 348 348 349 350 352 353 354 355 356 356 355 355 355 355 355 355 355 355 356 356 356 356 356 355 354 354 354 354 353 353 352 353 354 353 354 355 355 356 356 355 353 352 351 349 349 347 346 347 348
358 357 358 357 357 357 357 357 355 355 355 354 355 355 353 353 353 351 351 351 349 348 348 347 347 347 347 349 352 351 349 348 348 346 346 346 345 344 345 347 349 350 351 353 353 354 354 354 354 354 354 354 355 355 355 355 355 355 355 355 355 355 356 355 355 355 355 355 354 354 354 354 354 355 355 353 351 353 353 352 351 349 348 348 348
358 358 358 356 356 356 356 356 355 355 355 354 354 354 353 352 351 349 349 347 346 345 344 344 344 344 344 345 347 347 346 345 344 343 343 342 342 342 343 344 347 348 349 351 351 351 352 352 352 352 352 352 354 354 354 354 354 354 354 353 354 355 355 356 356 355 355 356 356 356 355 355 355 355 355 354 353 353 354 352 349 348 349 348 346
359 358 357 355 355 355 355 355 355 354 353 353 352 352 351 350 349 348 346 344 343 342 342 343 342 343 343 344 345 345 343 342 341 340 340 339 338 339 340 342 344 346 347 348 348 348 348 349 349 349 350 351 351 351 351 351 351 353 353 353 354 355 355 354 355 355 354 354 355 354 355 355 355 354 354 353 352 351 353 351 348 348 348 346 343
357 356 355 354 354 355 354 354 354 353 352 351 351 350 350 348 347 346 343 343 342 342 342 342 342 342 342 344 346 344 342 340 339 338 337 337 336 336 337 340 342 343 344 345 345 345 345 346 347 346 347 349 349 348 348 347 348 350 352 352 353 353 354 354 354 354 354 353 353 353 354 354 354 353 351 350 349 350 352 351 349 348 344 342 342
354 354 354 353 353 353 353 354 354 353 351 350 350 351 349 347 346 343 342 342 343 343 342 341 341 342 343 344 344 343 341 340 338 337 336 335 334 333 334 339 341 341 342 341 341 342 342 343 344 343 344 346 346 345 345 343 343 344 346 347 350 351 351 351 352 353 353 352 352 353 352 353 353 353 352 350 349 349 348 348 348 348 346 343 343
352 352 352 352 352 352 352 353 354 353 352 351 350 349 347 346 345 343 342 342 343 342 342 341 342 343 343 343 343 342 341 339 337 336 335 333 333 331 333 339 341 341 341 342 341 340 340 342 344 343 343 344 343 344 343 342 342 341 342 344 347 349 349 348 348 350 351 352 352 352 352 352 352 353 352 351 350 347 345 344 345 346 346 345 344
353 352 351 350 351 351 351 352 353 353 352 350 349 347 346 345 344 343 343 343 343 343 342 341 342 342 341 341 340 340 341 339 337 336 334 333 332 331 332 336 339 339 340 341 340 340 341 343 344 342 342 342 341 341 342 342 342 342 344 346 346 346 345 344 345 347 348 350 350 350 351 351 351 351 350 349 348 346 345 344 343 342 343 343 343
352 352 352 350 350 350 350 353 353 351 350 349 347 346 345 344 344 343 343 342 342 342 342 341 341 340 339 338 338 339 340 338 337 335 334 332 332 332 331 333 335 335 337 338 339 340 341 342 341 340 339 338 338 338 339 339 340 342 344 344 344 344 344 343 342 344 346 347 348 347 348 350 349 348 346 345 344 344 344 343 341 341 341 341 342
352 352 351 350 350 350 350 351 351 349 349 348 346 344 344 343 343 343 342 342 342 341 341 341 341 341 340 339 338 339 339 338 336 335 334 332 332 332 333 333 334 334 336 338 340 340 340 339 339 338 338 337 336 337 337 337 339 340 341 342 342 342 341 340 341 342 344 346 346 346 347 348 347 345 343 341 341 341 343 342 340 340 340 341 342
352 352 351 350 350 349 349 349 348 348 348 347 345 345 344 342 341 341 341 341 342 341 341 341 341 341 340 340 340 339 339 338 336 335 334 333 332 331 332 333 334 334 336 337 338 338 337 337 337 336 336 336 336 336 336 337 338 338 339 339 340 340 340 340 342 343 344 344 344 345 346 346 345 342 340 340 340 339 340 340 339 339 340 340 341
353 352 351 350 350 349 349 348 347 347 347 345 344 344 344 342 340 340 340 340 341 341 340 340 341 341 340 340 340 339 339 338 337 336 335 333 332 330 330 331 332 333 336 337 335 335 335 334 335 335 335 335 336 336 337 337 336 336 336 337 337 338 339 340 341 342 342 343 343 343 343 342 341 340 339 339 339 337 337 337 337 337 339 339 339
353 352 351 351 350 349 348 348 346 346 345 344 343 344 343 341 340 341 341 340 341 341 340 340 341 340 340 341 341 339 339 339 338 337 336 334 333 332 331 332 332 333 334 335 334 334 334 333 333 334 334 334 335 335 336 336 336 336 336 337 337 337 337 337 338 340 340 341 341 340 339 338 338 337 337 337 336 335 334 334 334 333 334 336 335
353 352 351 350 350 349 347 347 345 344 344 343 342 342 342 341 340 341 341 340 341 341 340 339 339 338 340 341 340 339 339 338 338 338 337 336 336 335 334 335 335 334 334 335 335 335 334 333 334 334 335 335 335 335 335 336 336 336 336 336 336 335 334 335 336 337 338 338 337 337 337 336 336 335 334 334 333 332 332 332 332 330 331 331 331
352 351 351 350 350 350 348 347 346 344 344 343 342 342 341 340 340 341 340 340 341 340 340 340 339 338 340 341 340 339 339 338 338 339 338 337 337 336 336 335 335 334 333 333 333 334 334 335 336 336 337 337 337 337 337 337 336 336 335 335 335 334 334 334 335 335 335 335 335 335 334 334 334 333 333 332 331 330 330 330 330 329 328 328 328
351 350 350 350 349 349 348 347 346 345 344 343 343 342 341 340 340 341 340 340 340 340 339 340 339 339 339 340 340 339 338 338 338 337 337 336 335 334 334 332 330 331 331 329 330 332 335 336 336 336 336 336 336 336 337 336 336 335 334 334 334 333 333 333 333 333 333 333 333 333 333 332 332 331 331 331 330 329 329 328 328 327 327 327 326
351 349 349 348 347 347 347 345 345 344 344 344 343 342 339 338 340 341 340 339 338 338 338 338 337 338 339 339 339 339 338 338 337 335 335 334 333 332 331 328 327 328 329 328 329 332 335 336 335 334 334 334 335 336 335 335 336 335 334 334 333 333 332 332 332 331 331 331 331 331 331 331 330 330 330 328 328 327 327 327 326 326 325 325 325
349 348 348 346 345 345 346 344 343 344 343 343 343 341 338 337 338 337 338 337 336 336 337 336 335 336 337 337 337 336 336 336 335 333 332 331 330 329 328 325 325 327 330 330 330 332 335 335 334 333 334 334 335 335 335 335 335 335 335 334 333 333 332 332 331 331 330 330 330 329 329 329 329 329 328 327 327 326 326 326 325 325 324 324 323
347 348 347 345 344 344 344 344 343 342 342 344 344 341 340 339 338 336 336 335 334 333 334 334 334 334 334 335 335 334 333 334 332 331 329 327 327 327 326 324 325 327 329 329 329 331 334 333 333 334 334 333 334 334 334 334 334 334 334 334 333 333 332 331 331 331 330 330 329 329 329 329 328 328 328 327 327 327 326 326 325 324 324 323 323
346 346 346 345 344 342 343 344 343 342 342 343 344 343 340 340 339 337 335 333 332 331 331 332 333 332 332 333 333 332 332 332 330 328 327 326 326 325 324 324 325 327 328 328 329 332 334 332 332 333 332 332 332 332 331 332 332 332 333 333 333 333 332 332 331 331 330 330 330 330 329 329 329 328 329 329 328 328 327 327 326 325 324 324 323
347 346 346 346 344 343 343 343 343 343 343 343 344 343 342 341 340 338 336 334 332 329 328 329 331 331 331 331 331 331 331 330 329 327 325 326 325 324 323 323 325 327 328 328 329 332 333 332 331 331 331 330 331 331 331 331 331 331 331 331 332 332 333 332 332 332 331 331 331 330 330 329 329 329 330 329 329 328 328 327 326 325 325 324 324
346 347 347 346 345 344 344 344 344 345 344 344 344 343 343 343 341 340 337 334 332 331 330 329 330 329 330 330 330 331 330 329 327 326 326 325 325 323 321 322 324 327 328 328 330 332 332 331 331 330 330 331 330 330 331 331 331 331 331 331 331 332 332 332 332 332 332 332 331 331 331 330 330 330 330 330 329 329 328 328 327 326 325 325 324
346 347 348 348 347 345 345 345 344 344 345 345 344 344 344 343 342 341 338 335 333 334 333 332 330 329 328 329 329 330 330 328 327 326 325 325 324 322 321 323 326 329 329 330 332 333 332 331 330 330 330 330 329 330 331 331 331 332 332 332 333 332 332 332 332 332 332 333 332 332 332 331 331 331 330 330 330 329 329 328 327 327 326 325 325
347 348 349 350 348 347 346 346 346 345 346 346 345 344 344 343 342 342 340 336 335 335 335 334 331 329 328 328 329 330 330 328 326 326 325 324 323 323 322 324 328 331 332 331 330 331 331 331 331 330 330 330 330 330 329 328 328 329 329 330 331 331 331 331 332 332 333 332 332 332 332 332 331 331 330 330 330 329 329 329 328 327 326 326 325
348 350 350 350 350 349 348 347 347 347 347 347 346 345 344 342 342 342 341 339 337 337 337 336 332 329 329 329 329 330 329 327 326 326 325 324 323 323 324 325 327 330 332 330 328 329 330 331 330 330 330 330 330 330 329 327 327 326 324 324 326 328 329 330 331 332 333 332 331 332 332 332 330 329 329 329 329 328 329 328 328 327 327 326 325
349 350 350 350 350 351 349 348 349 348 348 347 346 345 344 343 342 342 341 340 339 338 339 338 335 332 332 331 330 329 328 326 325 326 327 326 324 324 325 326 328 330 331 329 328 328 329 329 329 330 329 329 329 329 328 327 327 326 325 325 326 328 330 331 331 331 331 330 329 330 330 330 328 327 327 327 328 327 327 327 327 328 327 326 326
348 349 350 350 349 349 349 349 349 349 348 347 347 345 345 344 342 341 340 341 340 340 339 339 337 335 334 333 332 329 328 327 327 327 328 327 326 326 327 328 330 331 331 329 327 327 327 327 328 328 329 328 329 329 328 328 328 328 325 323 325 328 330 331 331 329 329 328 327 328 327 327 326 326 326 326 326 326 325 326 326 326 326 326 326
346 347 349 349 349 348 348 348 347 348 348 347 346 346 345 344 343 341 339 339 340 340 340 339 338 336 335 334 331 329 328 329 329 328 328 328 327 327 328 329 330 331 329 327 327 326 326 326 328 328 328 328 328 328 328 328 329 327 324 323 325 326 327 328 328 329 329 328 327 326 327 326 326 325 325 326 325 325 325 325 325 324 324 325 325
345 346 347 348 348 347 347 347 346 347 347 347 346 345 345 344 343 342 339 339 339 340 340 340 339 337 336 335 331 328 328 330 330 329 328 329 327 326 327 328 330 331 330 328 327 326 325 326 327 327 326 327 327 327 328 327 326 326 326 325 326 325 324 324 326 325 326 327 327 327 326 326 325 324 324 325 325 325 325 325 323 322 322 323 324
344 345 346 347 347 347 347 347 346 346 346 346 346 346 345 344 343 341 340 338 338 339 340 340 340 338 336 335 332 329 328 331 331 329 328 329 329 329 329 331 331 331 330 329 328 327 326 326 326 326 327 326 326 326 327 327 326 326 326 326 326 326 326 325 325 324 324 324 325 326 326 326 326 325 324 324 325 324 324 325 324 322 322 324 323
344 343 344 346 347 347 347 346 346 346 345 345 346 345 345 345 343 341 340 338 337 338 339 339 340 339 336 334 333 329 328 330 332 331 330 331 332 332 332 332 331 331 331 331 330 329 329 328 329 329 328 328 327 327 327 326 326 327 327 327 327 327 327 327 326 325 324 324 324 323 324 325 326 326 324 324 325 324 324 324 324 324 323 324 324
343 343 344 344 346 346 346 345 346 345 345 345 345 345 345 345 344 342 340 338 337 337 338 337 338 339 336 334 333 331 329 329 331 332 333 334 334 332 332 332 331 331 332 331 331 331 330 331 331 330 330 330 329 329 328 328 328 328 328 328 328 328 328 328 327 326 326 325 325 323 322 323 325 326 326 325 326 325 324 323 324 324 323 323 324
342 343 343 343 344 345 346 345 345 344 344 344 344 345 345 344 343 342 340 339 337 337 337 336 337 338 337 333 332 332 331 331 331 332 333 333 333 331 331 331 331 332 331 331 331 331 331 331 330 330 330 330 330 330 330 330 329 329 328 328 328 328 328 328 328 327 326 326 326 325 324 323 324 324 324 325 325 325 324 322 322 324 324 324 324
340 341 342 343 343 344 344 345 344 344 344 344 344 345 345 344 343 342 340 339 337 337 336 335 335 338 338 335 333 333 334 333 331 331 331 331 331 330 330 330 331 330 330 330 331 331 330 330 330 329 329 328 328 329 328 329 329 329 328 328 327 328 327 327 327 327 326 326 325 326 325 324 323 323 324 323 323 324 324 322 322 323 324 323 323
339 339 341 342 343 343 343 343 343 343 344 344 344 345 344 344 343 342 341 339 338 337 336 334 334 336 338 337 336 335 336 334 332 329 329 328 328 329 329 329 329 329 329 329 330 331 329 329 329 329 328 328 328 327 327 327 327 327 327 327 328 327 327 326 326 327 326 325 325 325 325 325 324 324 323 323 323 323 323 323 323 323 323 323 322
339 340 340 340 341 342 343 343 342 343 343 343 344 344 344 344 343 342 340 339 338 337 335 334 332 334 337 339 338 337 336 334 330 328 327 327 326 327 328 328 328 328 328 329 330 330 330 329 329 328 328 328 328 328 327 327 327 327 326 326 326 326 326 325 326 326 326 325 325 325 325 324 324 324 323 323 323 323 323 323 323 324 324 324 323
340 340 340 340 341 341 342 343 343 343 342 342 343 344 344 344 343 341 339 339 338 336 335 334 332 331 334 337 337 336 334 332 329 328 326 326 326 328 328 328 327 327 328 329 330 330 329 329 329 328 328 328 328 328 327 327 327 326 326 326 326 325 325 325 325 325 325 325 324 324 324 323 323 322 323 323 323 323 323 323 322 323 323 324 324
340 340 341 341 341 341 341 342 343 342 341 341 342 342 343 343 342 339 338 337 337 335 334 333 332 331 332 334 336 335 334 331 329 328 327 326 326 327 328 329 328 328 328 329 329 329 329 328 328 328 328 328 328 327 327 327 326 326 325 325 325 324 324 324 324 324 324 324 324 324 323 323 322 322 322 322 322 323 323 323 322 322 322 322 323
Wind_Speed
24 20 19 19 18 17 18 18 18 16 13 11 13 14 14 16 17 17 18 18 18 18 16 14 13 14 13 12 13 14 15 16 16 14 14 14 14 13 12 12 12 10 9 10 10 10 10 11 12 12 12 13 14 15 14 12 11 12 12 12 12 12 10 9 7 6 7 7 9 10 11 12 13 15 14 13 14 14 12 12 11 8 7 8 9
22 19 19 18 17 17 18 18 18 15 13 13 14 13 13 14 15 17 19 20 20 19 17 15 15 15 14 14 14 15 16 17 15 13 13 13 13 12 10 11 10 9 9 10 10 10 12 14 13 10 10 13 13 13 14 14 13 13 12 12 12 11 10 11 11 8 6 7 9 9 11 13 13 14 15 14 15 15 13 13 11 9 9 9 9
21 18 19 18 16 18 18 17 16 14 14 14 14 13 13 12 13 16 19 18 17 17 16 16 17 15 14 15 15 15 17 16 13 10 10 10 11 10 8 9 9 8 10 10 9 11 14 15 13 10 10 12 13 13 14 14 14 14 13 11 10 10 9 9 9 9 7 6 10 11 11 13 13 14 15 14 15 16 14 12 11 10 12 11 9
19 17 19 17 16 18 16 13 14 14 14 14 13 14 13 11 13 15 16 16 15 15 15 16 16 15 15 16 14 14 16 15 13 12 11 11 11 9 8 10 11 9 9 10 11 13 14 13 12 11 11 11 11 12 14 13 12 13 14 13 11 10 9 9 9 10 9 6 8 9 11 13 12 10 8 9 12 15 14 13 13 12 13 13 11
19 18 19 15 13 15 15 13 13 13 13 13 13 13 12 12 14 15 15 15 15 15 15 15 14 15 17 18 15 14 15 14 14 13 12 11 10 9 8 9 10 9 8 9 12 13 11 10 10 10 11 12 10 10 11 10 10 11 13 14 13 11 10 10 11 10 9 9 8 7 8 12 11 9 7 7 9 10 11 13 13 12 14 14 12
20 18 17 15 13 14 15 14 13 12 11 12 12 11 11 13 15 14 15 16 14 14 14 14 14 16 17 17 16 15 15 14 13 13 12 11 11 10 8 7 8 9 10 11 13 12 9 10 11 10 11 12 10 9 9 9 9 9 11 12 11 11 10 10 10 10 9 9 9 8 7 9 10 11 11 11 11 11 10 10 10 12 14 13 11
19 17 16 15 13 13 13 11 10 11 11 12 11 9 10 13 15 15 15 15 15 14 13 13 13 13 14 14 13 13 12 11 11 13 14 14 12 9 8 8 8 10 11 12 13 11 10 11 10 9 10 11 11 10 10 10 10 10 9 9 10 12 12 11 10 10 10 11 10 10 7 7 9 11 13 14 14 13 12 11 10 12 14 13 11
17 15 15 15 15 13 12 11 12 12 12 11 11 11 12 12 13 13 13 13 14 13 11 10 10 9 9 9 8 9 10 10 10 13 15 13 9 7 7 8 9 9 10 10 10 11 11 11 11 11 11 11 11 11 9 10 11 10 9 9 11 13 12 10 10 8 8 10 11 10 5 7 8 10 13 15 14 14 15 15 13 12 13 12 11
16 15 14 15 16 16 15 15 14 13 10 10 11 12 11 11 10 10 9 9 11 11 9 7 7 8 8 7 6 7 9 9 9 12 12 9 7 7 7 7 8 9 8 8 9 9 9 10 10 11 11 11 11 10 10 11 11 11 11 10 10 11 9 8 9 8 8 9 10 9 3 5 7 11 15 18 17 15 14 14 12 10 10 10 10
17 16 15 15 15 15 15 14 13 11 10 10 9 8 8 8 8 8 6 5 8 9 8 7 6 8 9 7 5 5 7 8 9 11 11 8 6 5 6 7 8 8 8 8 9 9 8 9 10 9 10 12 12 12 12 12 13 14 14 13 10 10 9 9 9 9 10 10 10 8 4 5 8 13 16 19 19 16 13 11 10 10 11 10 10
17 17 16 15 14 14 14 12 10 9 9 8 8 8 7 6 6 6 6 7 9 9 7 7 6 6 9 8 5 5 7 8 8 9 9 9 8 5 5 7 8 8 8 8 8 9 8 8 8 8 9 11 12 14 14 14 15 16 16 16 14 13 12 10 10 11 11 11 10 8 6 6 10 13 15 16 17 18 15 9 7 10 13 12 10
16 16 15 14 13 13 13 11 9 9 8 7 8 9 7 6 7 8 8 9 10 8 6 7 6 5 6 7 8 7 6 6 5 6 7 7 8 7 5 6 7 9 9 8 8 9 8 8 8 7 8 9 10 12 12 13 14 15 15 15 16 15 15 15 15 16 15 14 13 12 11 10 10 11 13 14 16 16 11 5 4 8 14 16 14
14 13 13 14 13 11 12 11 10 11 10 8 8 10 10 8 9 9 8 8 7 7 7 7 7 7 6 5 7 7 5 4 3 3 4 4 5 5 5 5 6 7 8 8 8 9 9 9 9 8 8 9 10 10 10 10 12 13 14 15 15 15 16 17 18 19 19 18 16 17 16 14 13 13 12 12 12 11 9 8 9 11 14 19 20
14 13 13 13 12 12 12 11 11 12 11 9 9 10 10 9 8 8 7 8 6 5 7 6 5 7 7 8 10 9 6 5 4 2 3 2 3 4 4 5 6 7 8 8 6 6 7 8 8 8 9 9 10 10 9 9 9 10 11 12 14 14 14 16 17 18 19 19 19 20 20 18 18 17 13 10 9 8 10 13 16 17 19 21 20
15 15 14 13 13 13 12 11 11 12 12 11 11 11 10 10 10 8 7 6 5 2 2 1 1 1 1 6 10 9 6 5 3 2 3 4 5 5 5 7 8 8 8 7 5 4 5 6 7 7 8 9 9 8 8 8 8 9 11 12 13 13 14 15 16 15 16 17 18 20 20 18 18 18 16 13 12 13 15 17 18 20 21 18 14
15 15 14 14 14 13 12 12 12 12 12 12 12 13 12 11 9 7 6 4 3 2 1 1 1 2 2 3 7 7 5 4 1 2 3 5 6 5 6 7 7 8 9 7 4 3 4 5 6 6 7 7 7 6 6 7 8 9 12 13 13 14 15 15 15 15 16 16 17 18 19 18 17 18 18 15 14 17 19 16 14 17 18 13 11
14 15 15 14 13 13 12 12 12 12 12 12 11 11 10 8 7 6 5 4 4 4 3 2 1 2 2 3 5 5 5 3 2 4 5 7 7 6 7 8 7 8 9 7 5 5 5 5 6 7 7 6 6 5 5 6 8 9 11 12 13 14 14 14 14 15 15 16 17 19 20 19 19 19 19 16 13 17 18 14 12 14 13 7 5
14 14 14 13 13 12 12 12 12 12 11 11 10 9 9 8 7 7 7 6 6 7 6 5 3 3 3 2 4 6 6 3 3 4 6 7 8 8 6 6 6 7 7 6 6 6 6 6 7 7 6 6 6 7 7 8 8 9 10 11 12 12 12 12 12 12 12 13 15 17 17 17 17 15 14 13 10 11 15 15 13 13 13 10 7
12 12 12 13 13 12 12 13 13 13 12 12 11 11 11 10 9 9 8 7 7 7 7 7 6 6 5 3 3 6 5 3 3 4 6 8 11 9 4 3 5 6 6 6 6 6 6 6 7 7 6 6 7 8 9 10 10 10 11 12 12 12 11 11 10 10 12 13 13 14 14 14 13 12 11 9 6 7 11 14 14 14 15 15 11
9 9 11 12 12 13 13 13 13 13 13 13 13 12 12 11 10 9 9 7 6 7 7 6 5 6 5 4 3 3 3 2 3 5 7 9 10 7 2 2 4 3 4 5 6 6 5 3 3 4 4 5 6 8 8 9 10 11 11 10 10 11 12 13 12 11 12 13 13 13 13 12 12 11 9 5 2 4 6 9 11 13 13 12 14
7 8 9 9 10 10 10 11 12 12 12 12 11 10 10 9 8 8 8 5 4 6 6 4 4 4 4 3 2 2 2 1 2 4 7 8 8 5 2 2 2 2 2 4 4 5 5 3 3 5 6 6 7 8 8 9 9 8 8 8 10 11 13 14 14 12 13 14 13 13 12 11 10 7 3 1 2 1 2 4 5 6 8 10 13
7 7 7 7 7 7 7 7 9 9 8 8 9 7 7 7 6 6 6 5 4 6 6 5 5 4 4 2 2 2 1 1 2 3 6 7 7 5 3 2 4 4 2 2 4 6 6 6 6 8 9 9 9 10 10 9 8 6 6 8 10 11 12 12 12 11 12 13 13 13 12 9 6 4 3 4 3 2 3 3 3 3 2 7 9
7 7 6 6 6 6 6 6 6 6 4 5 6 7 6 5 5 5 6 6 6 6 5 6 6 5 5 5 4 4 3 1 2 2 4 6 6 6 4 1 2 2 2 1 4 5 5 7 9 11 12 11 11 10 8 7 6 6 7 8 10 11 11 10 11 11 11 12 13 13 11 7 5 5 6 6 5 5 5 6 6 5 5 5 5
7 7 6 6 6 6 6 7 6 5 5 5 6 6 7 6 6 7 7 7 7 6 6 6 7 6 6 6 6 5 5 3 3 2 2 4 6 7 7 5 4 3 3 0 3 5 7 10 10 11 11 9 8 7 4 3 3 4 5 7 8 8 9 9 10 10 10 11 12 9 7 7 7 7 6 6 6 5 5 7 9 8 7 6 5
8 7 7 6 7 7 7 7 6 6 7 7 6 6 8 8 9 9 9 8 8 8 8 8 8 8 7 7 8 8 6 6 5 3 0 3 5 8 9 9 9 7 5 2 2 4 6 8 6 5 6 6 5 3 3 3 3 3 4 5 6 7 9 9 10 11 11 11 10 9 9 8 7 7 6 5 5 6 6 7 9 9 8 8 7
9 8 7 7 8 8 9 9 8 8 9 8 8 8 9 9 10 10 10 9 9 9 9 9 9 9 8 8 9 9 7 7 7 4 2 2 3 4 6 7 7 5 3 2 2 4 5 6 6 6 6 5 4 3 3 4 5 6 7 8 8 8 9 10 10 11 11 10 10 9 9 8 7 6 5 4 4 5 5 6 7 8 8 9 10
12 9 8 9 9 9 10 10 10 10 9 9 9 10 10 10 10 10 10 10 11 10 9 9 8 8 9 10 9 8 8 8 8 7 5 4 3 2 1 3 4 4 1 2 2 4 4 5 5 4 4 4 4 3 2 3 5 6 7 7 8 8 8 9 9 8 8 7 7 7 5 5 5 4 5 5 5 5 5 5 6 8 8 9 11
14 12 10 9 9 9 9 9 9 9 9 9 9 9 10 10 10 11 11 10 10 10 9 9 9 8 9 11 10 8 8 9 9 9 8 6 4 3 3 3 2 1 2 2 2 0 2 3 4 4 3 4 4 2 2 3 4 5 5 6 7 7 6 7 6 5 5 4 3 3 3 3 3 4 4 5 5 4 4 5 6 8 8 9 11
13 13 12 10 9 9 9 9 9 9 9 9 8 7 9 10 9 9 11 9 8 9 9 8 9 8 7 10 11 9 9 10 10 10 9 7 6 5 3 2 3 3 3 3 4 5 3 1 2 3 3 3 2 1 3 4 4 4 4 4 5 5 5 5 5 5 4 3 2 2 3 3 4 4 4 5 5 4 4 6 8 9 9 10 11
12 12 12 11 9 7 8 9 9 10 10 9 7 6 9 9 7 6 10 10 9 8 7 6 6 4 4 8 11 8 6 8 10 9 7 7 7 6 4 3 4 4 2 3 5 5 3 1 3 4 3 2 2 2 2 2 3 3 2 2 3 5 6 6 6 6 5 5 5 4 4 4 5 4 4 5 6 6 6 7 8 9 10 12 12
13 10 12 13 11 7 7 9 10 10 10 10 7 7 8 9 7 6 9 11 10 10 10 8 6 5 4 8 10 6 4 5 7 7 6 6 6 6 5 4 5 5 4 4 4 4 4 1 5 4 1 1 2 2 1 1 2 3 3 3 4 5 5 5 6 6 5 5 6 5 5 6 6 6 6 7 8 8 9 9 8 9 10 12 13
13 10 11 14 13 12 11 9 9 11 10 9 8 8 8 9 9 10 11 11 11 11 12 12 10 8 6 7 8 6 5 5 6 6 6 6 6 6 5 5 5 6 5 4 3 5 4 1 5 4 3 3 3 3 3 3 4 5 6 6 5 4 4 5 7 6 5 6 6 6 6 7 7 7 8 9 9 9 9 9 9 9 10 11 12
13 11 11 13 14 15 15 10 7 11 13 10 8 9 9 10 11 12 14 15 15 14 13 13 13 11 9 8 7 5 5 6 6 7 7 6 5 5 5 5 6 6 5 5 5 7 3 2 3 2 2 3 3 2 1 2 1 3 5 5 5 4 4 5 6 6 5 6 7 7 7 7 7 7 7 8 8 9 9 9 9 10 10 10 11
13 13 13 14 13 15 17 14 10 12 14 12 10 9 10 11 12 12 12 13 15 16 15 15 14 12 10 10 8 6 5 6 8 8 8 6 6 6 6 6 6 6 6 5 7 8 3 4 3 2 2 2 3 3 1 2 3 4 2 2 3 4 5 5 5 4 5 6 6 6 6 7 7 7 7 8 8 9 9 10 10 10 10 10 10
12 14 15 16 17 16 17 17 15 13 14 14 12 11 11 13 13 13 12 11 11 13 14 15 16 15 13 12 11 9 7 9 10 9 8 7 6 6 6 6 6 7 6 5 7 8 5 5 4 5 4 2 2 4 3 1 1 1 1 2 2 4 6 5 3 2 4 6 7 6 6 6 7 7 8 9 9 9 9 10 11 12 11 11 10
11 14 16 17 20 21 19 18 17 16 14 14 14 13 13 14 14 13 12 11 11 11 10 11 15 16 15 14 14 12 11 12 13 11 9 8 7 6 6 5 6 8 9 7 6 5 5 6 5 5 3 1 1 2 3 2 2 1 2 4 3 3 4 3 2 3 4 5 7 7 7 7 8 8 8 8 9 9 10 10 11 12 13 12 11
11 14 16 16 19 23 22 19 17 16 15 16 17 15 14 16 16 14 13 12 12 12 11 10 12 15 16 16 16 15 14 15 14 12 10 10 9 9 9 8 8 10 11 8 5 4 4 5 5 5 4 3 3 3 2 1 1 1 1 2 2 1 2 3 3 4 5 4 5 7 8 9 10 9 8 9 10 9 10 12 12 11 13 14 13
13 15 16 16 17 20 22 20 17 14 14 16 18 17 16 16 16 16 15 14 14 14 13 12 13 15 16 17 17 17 16 17 16 13 12 12 12 12 13 13 13 13 13 8 6 6 5 5 5 5 5 5 5 4 3 3 3 4 4 3 1 1 2 4 5 4 4 4 5 7 9 10 10 9 8 10 12 11 11 13 15 14 14 16 15
15 16 18 19 17 17 19 20 18 15 13 14 16 17 16 16 17 17 16 15 15 15 14 14 14 15 15 17 18 19 18 18 17 15 13 13 14 14 15 14 14 15 13 9 7 7 7 6 6 5 5 5 4 4 3 3 3 4 4 4 5 5 5 6 6 5 5 5 6 7 9 9 10 10 8 8 11 13 12 14 16 17 17 17 16
15 17 20 21 20 18 17 18 18 17 16 16 16 16 17 17 18 17 17 17 16 16 16 15 15 16 17 19 22 23 20 18 16 15 13 13 14 14 15 16 16 15 12 8 7 7 8 8 7 6 6 5 5 5 5 5 5 4 4 6 8 7 7 7 7 6 7 7 6 4 4 5 6 7 7 6 6 8 9 12 15 17 17 17 17
17 18 19 21 21 19 18 18 17 17 17 18 18 17 18 19 20 19 18 18 17 17 17 16 16 18 19 21 25 26 22 16 15 15 15 14 15 15 16 17 16 13 10 9 8 8 8 9 8 8 7 7 7 6 7 7 6 6 7 8 8 8 7 8 9 9 8 7 6 5 4 4 4 4 4 6 7 6 5 7 12 12 11 13 15
17 16 17 20 21 19 19 20 20 18 17 19 20 20 20 21 21 20 19 19 17 17 18 17 17 19 21 22 25 27 23 17 15 16 16 16 16 18 18 18 15 11 10 10 10 10 10 9 9 8 8 9 9 8 8 9 8 8 9 10 9 9 9 9 9 10 8 6 6 6 6 6 6 6 6 5 7 7 6 6 10 9 10 12 13
16 15 14 17 20 19 18 19 20 20 19 19 20 21 22 23 22 20 20 19 19 18 18 18 17 19 23 24 25 27 24 18 16 18 19 19 19 19 18 15 13 11 11 11 11 11 11 11 10 9 9 9 10 10 9 9 9 9 10 11 11 10 9 9 9 10 10 8 7 7 7 6 7 8 8 7 5 7 9 9 10 10 11 12 12
15 16 16 16 18 19 18 17 17 20 21 20 20 21 23 23 21 19 19 20 20 19 19 19 17 20 25 27 26 28 27 21 17 17 18 18 18 18 15 13 13 13 12 12 12 12 12 11 11 11 11 10 10 11 10 10 10 10 10 11 11 10 9 9 8 8 8 9 9 10 10 9 7 7 9 9 7 8 12 12 12 14 14 12 13
12 14 15 16 17 18 19 18 17 17 19 20 20 21 22 23 22 20 19 20 21 20 20 20 17 19 27 31 30 30 29 24 19 18 18 16 15 15 13 13 14 14 13 13 13 12 12 11 11 11 11 12 11 11 12 12 12 11 11 11 12 11 10 10 10 10 10 8 8 9 10 10 10 9 10 10 9 11 13 14 11 12 14 14 13
13 13 14 16 17 18 19 19 18 17 16 17 19 21 22 23 23 21 20 20 20 19 20 20 17 18 27 33 32 29 27 23 20 19 18 15 13 14 14 13 13 13 12 13 12 11 11 11 10 9 9 10 9 10 12 13 13 12 12 13 14 13 12 10 9 10 10 9 8 9 9 10 10 11 12 12 12 11 13 15 14 12 12 13 12
14 14 14 16 17 18 18 19 19 18 17 17 18 21 22 23 23 22 20 20 20 19 19 20 18 17 23 29 29 27 25 22 21 20 19 16 13 13 13 13 13 12 12 12 12 11 10 10 10 11 11 11 10 10 11 11 11 12 13 14 15 16 15 14 13 11 10 8 8 9 10 11 11 10 11 13 14 13 13 15 15 14 13 13 13
15 16 16 16 16 16 17 18 18 18 18 18 18 19 21 21 21 21 21 21 21 20 19 20 20 18 20 23 24 24 23 22 21 21 19 17 15 14 13 12 12 12 12 11 11 11 10 10 10 11 13 13 13 12 11 11 12 13 13 14 15 14 13 13 13 13 12 10 9 8 9 11 12 12 12 12 14 15 14 14 14 15 14 13 14
16 16 16 16 16 16 16 17 17 17 18 18 17 18 18 19 20 20 20 21 23 22 20 20 20 19 19 21 21 21 21 21 21 21 20 18 16 15 14 13 12 11 11 10 10 10 11 11 12 13 14 15 15 14 12 12 13 13 14 15 16 16 14 11 10 11 13 13 12 11 10 10 11 13 15 14 13 15 16 15 14 15 15 14 15
17 17 17 17 16 16 16 16 17 17 17 17 17 16 16 17 19 18 17 18 21 21 20 20 20 19 17 18 19 19 19 20 21 20 19 18 17 15 15 15 14 13 12 11 10 9 10 12 13 15 16 16 16 15 13 13 14 15 16 17 17 15 14 13 13 12 13 14 14 13 13 13 13 14 16 16 15 14 15 17 16 16 15 14 15
18 18 18 18 17 16 16 16 17 17 16 15 16 15 14 15 16 17 17 19 20 17 16 16 17 16 15 15 17 17 18 19 20 19 19 18 17 15 13 13 14 14 14 13 13 12 12 13 14 16 16 16 16 17 18 17 16 16 16 17 16 14 14 14 15 15 16 16 16 16 16 16 15 16 16 16 16 16 15 15 16 17 16 16 15
Wind_Direction
215 207 192 191 193 194 199 199 198 203 203 206 215 222 226 225 226 227 226 227 230 234 234 232 236 240 241 240 236 240 247 241 232 230 231 237 244 245 246 249 252 259 264 265 267 269 273 277 279 279 277 277 282 283 275 266 257 249 242 235 240 248 235 209 201 232 250 216 191 198 203 201 199 195 189 183 182 180 188 204 206 203 203 194 187
205 195 190 192 196 200 202 200 198 199 201 207 214 218 218 218 221 225 227 231 233 233 234 234 236 240 243 245 240 238 246 243 230 226 232 237 243 250 255 257 257 256 257 260 262 260 258 260 263 268 272 270 275 283 282 277 273 264 251 238 238 249 242 220 213 220 223 201 188 187 195 207 214 205 191 185 183 181 190 202 200 196 200 198 194
196 190 193 193 194 200 202 200 199 201 205 208 212 218 220 220 224 228 231 236 235 230 231 233 232 235 239 242 242 238 239 239 228 221 230 235 240 248 253 252 253 257 264 263 257 261 265 262 259 265 272 268 268 279 288 286 284 283 280 267 256 257 251 237 230 233 240 212 185 186 202 217 225 217 200 191 185 182 191 199 188 185 196 200 202
184 187 192 192 196 198 196 196 200 203 206 208 213 217 221 226 229 230 232 237 237 231 230 232 232 233 234 237 240 238 236 238 232 224 226 233 237 239 240 247 251 254 264 265 257 265 275 272 273 279 274 265 266 276 285 290 293 298 300 297 291 282 271 265 254 242 245 235 200 201 214 217 229 241 223 200 190 183 188 195 189 184 188 192 196
175 182 187 187 194 197 192 192 198 202 205 210 215 217 221 225 225 228 235 238 238 236 235 235 234 233 232 232 232 233 238 242 238 230 226 228 231 228 231 248 257 255 257 258 258 269 278 266 266 280 278 269 269 278 281 285 296 305 306 306 309 309 297 288 281 265 247 233 226 229 207 195 213 236 217 200 206 199 196 200 195 182 178 185 191
173 178 183 184 191 195 193 193 196 201 210 214 213 215 221 222 221 227 236 240 241 241 241 236 228 225 227 226 227 234 244 248 242 232 226 231 236 237 237 245 253 252 253 257 265 275 283 273 265 270 278 273 267 272 278 281 290 300 303 304 307 309 307 304 304 297 280 260 247 243 214 190 207 219 202 193 203 209 213 214 197 176 175 181 181
169 174 178 180 191 199 198 201 207 209 214 215 210 209 216 218 222 230 238 244 248 246 242 234 221 217 218 217 225 240 247 246 239 231 231 238 243 241 238 239 241 247 254 263 272 275 276 276 271 266 273 275 267 267 274 277 282 289 295 300 300 300 301 302 304 304 296 286 272 257 233 192 196 209 205 201 203 204 210 214 196 177 178 183 183
168 171 173 171 179 193 200 208 213 207 205 210 210 207 207 211 220 229 238 251 256 251 243 230 216 214 217 216 223 238 242 239 235 231 232 233 233 234 238 243 245 251 260 268 274 276 275 274 270 262 261 265 267 266 267 271 276 276 275 283 294 297 297 297 304 311 301 288 284 281 247 164 177 207 206 204 209 211 212 208 192 180 185 194 204
168 173 176 170 173 182 188 195 200 199 201 209 212 207 202 206 212 213 223 250 261 257 248 230 213 211 216 221 224 230 238 241 233 227 224 219 218 227 232 237 241 245 257 271 278 283 283 277 271 263 255 255 259 259 257 262 270 271 274 285 295 293 290 293 301 306 299 285 283 289 269 162 193 218 209 207 212 214 216 209 190 180 189 194 207
168 172 176 174 175 177 178 187 197 204 211 208 203 202 201 203 202 195 195 220 246 247 238 229 220 215 219 223 222 221 227 227 220 214 211 209 212 221 231 240 246 248 250 262 275 281 279 276 273 266 259 257 256 256 257 260 264 267 271 274 272 271 279 287 288 287 285 279 275 279 267 203 210 219 221 225 223 215 216 213 194 188 189 184 196
167 171 176 174 175 175 175 183 194 202 209 198 184 187 192 187 183 178 172 189 217 229 227 227 222 220 229 223 199 200 210 208 211 213 212 216 216 218 243 254 262 272 266 258 266 271 268 270 272 267 268 265 257 254 257 261 265 266 265 263 260 263 269 271 273 275 275 275 275 275 266 242 235 232 234 238 232 223 224 220 189 178 180 184 198
167 171 174 173 174 176 176 182 190 192 194 189 177 175 173 168 174 180 177 188 204 209 213 223 213 203 222 207 181 188 201 194 205 220 222 226 224 224 243 257 267 282 283 275 276 275 266 262 263 266 270 268 259 256 259 264 265 264 265 265 265 266 265 262 264 266 266 267 269 269 267 260 254 250 246 245 241 234 227 221 208 191 188 199 207
171 170 172 173 174 176 176 179 184 185 186 186 179 172 171 173 174 176 180 186 185 183 195 207 201 197 207 187 169 177 177 164 177 207 215 224 228 232 250 269 271 275 278 278 281 283 277 271 269 269 268 267 265 267 268 268 269 270 270 270 268 266 265 264 263 263 263 262 261 263 264 260 259 262 257 250 247 232 207 208 229 226 217 222 223
173 170 172 173 172 171 172 171 171 175 181 183 175 168 168 166 156 155 168 174 163 171 194 195 188 201 200 172 165 171 166 154 159 184 205 223 250 257 273 290 288 283 278 273 272 282 292 294 288 278 275 274 271 270 269 266 271 277 277 274 273 271 269 266 263 262 262 260 258 260 261 261 265 268 264 258 256 240 218 222 229 221 216 225 228
171 171 169 168 169 166 164 161 157 159 165 167 164 162 159 151 144 142 151 158 155 174 224 253 34 267 175 141 151 162 162 160 180 238 268 286 295 298 302 297 289 288 286 277 271 289 311 319 315 307 305 297 281 272 275 273 273 280 282 281 280 278 276 272 268 266 265 264 264 265 266 268 269 269 268 263 260 256 246 241 240 228 216 213 208
167 168 165 165 167 164 159 157 154 152 155 158 158 157 154 147 142 141 140 143 155 178 258 316 26 35 43 113 139 145 147 151 185 324 331 324 321 328 324 309 297 295 295 294 302 319 321 321 320 324 325 314 299 291 293 289 285 286 289 290 284 279 279 277 272 270 269 269 269 269 271 273 271 272 273 265 258 260 254 236 223 218 210 193 170
163 163 164 166 165 163 161 160 161 161 163 166 163 156 153 149 143 143 144 144 164 181 190 191 142 87 91 121 128 134 138 117 52 10 1 353 349 346 329 312 303 299 299 306 320 328 332 329 322 322 322 315 308 307 307 304 300 296 296 298 292 287 287 289 286 279 277 276 273 269 270 273 275 280 282 277 272 268 255 231 212 208 205 195 162
165 166 166 165 165 167 168 167 168 169 171 173 169 161 158 155 150 149 154 164 176 177 174 172 160 141 154 140 117 136 147 118 53 10 4 3 354 346 329 308 301 299 302 311 316 322 330 325 312 306 300 294 294 298 301 302 298 294 298 304 304 303 304 304 298 290 289 289 281 274 274 276 277 281 284 283 281 266 249 244 242 226 218 234 228
167 168 167 168 172 174 174 175 174 173 175 175 171 169 167 160 152 151 161 181 184 175 172 172 163 159 166 154 109 130 141 116 54 22 15 3 350 346 341 312 307 304 306 310 309 315 320 310 300 293 285 281 285 287 291 294 289 283 287 296 302 307 310 313 310 303 303 301 293 289 290 288 285 282 280 279 271 249 250 257 257 243 234 234 218
170 173 172 172 179 181 181 184 181 176 179 179 175 173 167 158 152 157 173 189 179 167 171 171 151 141 141 124 109 133 146 107 56 21 7 358 352 355 17 341 328 315 312 309 295 294 301 296 299 312 311 305 303 299 298 299 292 282 281 285 291 297 305 310 313 312 309 307 304 303 302 298 295 285 273 271 242 228 261 271 263 255 247 229 204
176 179 179 179 186 190 189 187 184 184 187 180 169 161 155 152 153 163 181 193 164 153 165 173 157 140 131 119 118 144 164 131 44 356 353 357 360 7 23 337 300 277 316 330 309 310 335 7 4 342 338 329 321 317 314 310 302 290 280 277 283 293 302 307 311 315 314 311 311 313 312 312 314 308 299 21 76 184 287 307 295 277 252 223 203
183 182 188 192 198 202 201 193 188 191 187 168 155 149 149 154 158 167 183 195 183 172 175 179 171 152 146 168 171 159 173 281 336 343 352 355 353 350 341 288 254 252 271 325 323 331 351 357 343 332 329 324 321 319 312 307 304 294 276 272 280 291 300 307 314 317 317 318 319 320 322 327 339 1 35 54 59 52 27 24 19 12 219 206 202
188 190 197 204 209 206 207 210 204 194 178 164 168 170 164 164 173 180 190 199 198 193 188 184 178 166 163 174 176 173 180 233 303 331 356 358 357 2 6 346 257 238 205 261 317 324 328 323 319 319 319 319 323 323 313 295 285 281 280 282 288 295 303 315 323 318 314 319 320 324 336 1 46 69 75 77 73 62 57 72 85 88 109 154 177
185 195 199 201 210 210 208 213 213 202 191 190 192 179 169 179 195 195 200 207 200 191 192 194 191 184 175 171 174 178 178 197 246 284 12 26 32 45 55 60 63 87 117 67 311 307 312 313 311 316 324 329 332 335 338 318 297 299 307 304 301 308 319 327 329 328 328 332 336 349 29 64 84 90 90 85 81 84 88 88 92 103 118 141 168
179 193 197 196 203 206 205 207 208 203 195 196 200 187 180 195 207 201 200 204 197 190 194 199 195 190 183 177 179 182 186 199 218 230 107 63 62 69 71 66 65 78 94 70 318 315 336 341 343 357 10 13 10 16 31 22 5 6 5 354 351 357 357 350 349 355 0 4 15 43 71 85 92 93 91 85 85 95 103 99 96 103 119 134 147
169 186 195 198 204 207 206 206 207 206 201 202 211 211 206 211 212 206 203 200 199 202 200 197 199 196 187 184 186 185 187 194 199 204 194 132 102 82 76 71 60 59 88 91 41 24 24 27 41 58 55 42 35 48 57 43 30 27 24 22 19 12 6 3 7 15 21 28 43 59 70 77 84 87 87 91 102 105 106 109 108 110 122 131 125
163 180 193 200 208 212 214 213 212 213 212 214 221 222 223 224 219 215 217 211 204 209 205 194 199 199 185 183 188 189 188 190 193 198 195 178 185 213 137 82 44 18 80 139 68 25 15 19 29 42 42 22 15 33 51 44 35 29 26 25 16 1 1 8 11 18 27 36 48 55 60 70 77 76 76 83 92 96 100 110 115 116 122 124 113
165 174 185 199 208 215 223 224 221 220 218 221 228 225 220 227 226 220 225 224 212 214 213 200 200 205 192 181 181 188 197 197 193 191 189 184 187 190 168 141 117 100 213 191 154 82 326 341 351 359 6 349 331 343 43 52 50 45 39 33 22 9 11 22 24 21 24 33 44 42 43 63 75 80 90 90 84 81 91 106 112 116 118 113 105
176 174 178 193 204 208 222 233 231 232 228 221 223 215 208 223 234 221 219 225 218 214 217 205 201 212 203 183 182 192 202 198 192 189 188 189 190 183 169 174 199 222 257 243 192 188 211 275 358 13 7 340 325 25 78 81 77 67 46 34 36 40 41 44 47 45 41 44 56 59 65 75 80 88 95 93 91 92 100 108 114 119 119 113 109
189 185 177 185 195 202 222 231 226 231 238 229 212 192 199 217 230 210 206 216 219 217 218 203 192 193 166 163 175 189 195 185 185 192 197 202 211 219 228 246 239 227 218 185 181 193 218 177 84 51 17 4 31 58 79 88 95 93 81 75 84 80 73 69 71 73 70 70 73 76 82 85 86 90 94 94 96 101 103 109 115 118 116 112 112
195 195 182 183 188 188 209 229 222 219 237 244 222 193 203 222 227 213 209 217 226 232 237 232 217 203 167 159 168 179 184 175 179 191 201 205 210 215 222 231 226 212 192 179 192 241 263 169 100 92 119 104 93 133 166 153 151 144 136 132 110 90 87 94 94 91 87 85 85 84 88 93 93 97 106 109 106 104 103 102 105 110 112 114 115
205 210 197 196 198 188 191 216 220 203 212 235 223 200 209 230 237 236 232 230 233 239 241 240 238 233 215 196 191 194 191 183 184 188 191 194 197 201 212 221 218 214 214 214 244 275 275 138 113 140 178 156 143 178 209 220 205 180 157 143 125 105 104 106 105 105 102 98 99 97 98 103 103 104 112 116 114 114 113 111 112 115 114 116 120
221 230 224 219 213 198 192 204 208 192 196 212 212 201 211 227 237 242 243 243 246 251 248 242 239 238 233 224 219 214 198 189 189 187 186 194 200 202 212 218 213 219 233 246 272 284 274 139 130 172 182 145 142 160 240 279 214 129 133 135 122 112 111 106 107 115 113 107 110 114 115 118 117 117 123 125 125 126 123 121 124 126 123 124 127
235 242 249 250 240 215 200 202 206 195 194 201 208 213 222 230 235 237 236 239 246 251 252 246 239 235 234 230 223 218 207 194 190 190 193 203 211 212 213 210 209 223 238 249 266 269 241 142 140 199 211 180 150 134 102 360 31 59 88 117 112 119 121 111 116 132 132 127 130 133 140 146 144 141 140 137 136 138 135 133 136 136 133 135 138
250 250 254 262 262 242 216 208 209 203 193 193 203 219 233 240 239 232 222 222 232 239 244 246 240 233 231 229 223 219 208 194 190 195 203 210 216 218 212 204 210 227 234 246 265 258 213 162 173 210 223 218 139 131 145 171 98 74 38 39 80 130 134 125 139 177 163 154 157 161 163 161 157 156 157 155 152 151 150 150 150 148 145 147 150
249 251 250 257 263 257 240 221 212 209 203 198 201 213 232 242 243 233 218 214 221 221 224 235 237 233 229 226 222 218 207 197 196 200 207 212 216 219 216 213 226 237 234 236 255 249 197 171 186 210 217 214 125 159 167 155 123 81 16 3 15 96 122 129 177 207 194 171 163 164 169 170 167 164 165 166 164 161 161 160 156 154 156 158 158
215 237 242 247 255 258 253 239 223 219 220 211 204 209 224 237 242 237 223 212 213 213 206 204 213 219 219 218 218 215 205 199 201 206 212 217 220 223 225 228 241 255 254 242 226 224 208 189 192 201 198 198 220 229 207 189 206 184 216 295 322 53 121 150 178 203 217 197 167 167 176 177 174 173 174 174 174 171 168 166 164 163 163 162 162
199 217 228 233 239 246 248 242 234 231 226 212 204 206 216 228 236 238 231 218 210 206 199 190 194 203 207 209 213 215 206 200 204 213 220 224 224 226 230 233 240 256 265 249 204 206 228 216 201 207 207 205 216 220 198 201 218 193 180 201 226 160 171 177 175 192 218 213 197 199 198 189 181 184 192 190 184 181 175 169 167 170 169 169 173
207 216 222 223 225 230 232 231 229 228 223 212 206 207 214 225 232 233 232 226 215 206 198 191 191 198 201 202 207 209 204 202 207 214 221 225 227 229 233 238 243 254 260 242 200 203 226 226 219 221 218 212 222 225 208 211 219 196 186 203 208 202 202 199 196 199 206 211 223 219 207 199 193 190 199 204 189 180 179 176 172 173 177 181 187
220 223 223 222 221 222 223 223 224 222 218 214 212 210 216 227 232 230 230 229 220 211 204 196 194 198 200 199 200 200 198 200 207 210 212 218 224 228 231 237 243 247 244 228 204 207 223 229 223 217 219 225 232 230 231 237 233 219 227 241 238 230 217 207 209 216 209 207 223 225 205 214 210 192 195 214 193 174 180 181 175 178 187 191 196
230 228 225 222 220 218 215 217 221 223 218 217 217 217 223 230 232 230 231 232 225 217 210 203 199 199 200 201 201 198 195 198 206 207 208 214 218 223 230 237 241 237 225 216 212 213 224 234 226 210 213 230 233 228 233 242 240 231 235 242 245 247 241 223 217 224 225 220 224 226 222 241 252 238 221 204 180 175 202 188 172 182 205 206 204
238 234 225 216 212 210 207 210 217 221 221 221 221 221 226 231 229 225 228 231 229 223 216 208 202 199 199 202 203 198 195 199 206 206 208 213 216 222 230 235 237 231 218 217 218 213 218 235 234 215 211 223 230 230 232 236 240 244 246 245 241 242 248 245 232 230 242 253 246 234 231 229 232 245 255 219 171 178 220 201 165 182 225 223 209
241 241 231 213 205 205 208 209 213 217 220 224 223 221 226 233 230 222 221 227 230 228 221 213 205 198 197 202 203 198 197 203 210 210 212 214 215 220 225 227 228 229 223 220 220 215 214 224 232 227 224 227 228 230 233 236 242 247 252 258 259 250 247 252 246 234 238 250 259 266 270 256 228 226 245 249 203 198 228 221 186 194 232 229 206
243 241 237 219 205 204 209 212 213 215 220 226 228 224 227 235 234 224 218 223 229 229 225 220 211 197 193 196 199 197 199 206 214 218 222 222 217 216 218 217 221 227 224 219 220 219 216 218 223 227 231 233 231 232 238 244 249 251 253 261 269 264 254 256 262 256 242 235 239 253 266 267 252 233 238 246 231 220 240 243 212 202 225 229 205
254 243 237 225 210 204 206 210 213 216 218 225 231 231 230 234 235 228 222 223 227 228 225 225 219 197 188 191 194 196 201 208 216 224 233 233 220 214 217 219 219 222 223 222 223 222 222 228 232 232 233 235 233 234 239 241 242 247 254 263 270 273 266 257 256 261 262 252 241 242 249 253 251 245 246 250 240 227 243 261 247 218 224 231 213
259 252 246 237 224 213 208 210 214 216 217 222 230 233 232 231 231 228 225 225 227 226 225 226 221 195 185 189 193 195 199 207 214 222 232 235 221 214 219 222 221 222 225 226 226 222 223 230 238 244 251 257 254 252 255 254 248 244 247 252 258 265 273 274 266 258 258 257 253 250 251 250 247 242 243 251 252 235 231 249 262 253 242 243 235
255 255 255 251 239 227 218 213 211 212 215 220 227 233 233 228 223 222 224 227 229 226 224 226 222 197 181 185 193 195 198 204 210 216 225 231 225 218 220 222 222 225 228 226 222 221 224 230 234 238 247 259 266 268 272 274 272 267 262 260 255 251 251 258 266 269 269 268 262 257 258 259 257 251 242 243 250 249 236 237 249 256 249 245 251
250 249 251 253 248 239 230 220 213 213 219 223 228 236 237 229 220 217 219 224 228 228 225 226 224 208 185 183 191 197 200 203 206 210 217 226 227 223 222 222 222 224 229 227 220 218 225 234 238 237 237 241 247 257 267 274 277 278 278 279 277 270 257 249 249 255 263 270 268 266 267 266 264 266 260 246 241 244 244 240 243 248 246 239 242
249 247 247 248 246 242 238 230 222 222 225 226 229 235 235 229 223 220 219 220 223 223 222 225 229 222 200 187 189 197 201 202 203 206 212 220 225 222 221 223 226 227 230 230 224 219 223 232 238 244 246 244 241 245 253 258 260 264 267 269 275 282 285 281 266 256 259 264 263 262 270 275 272 272 274 269 253 242 240 243 247 248 245 239 233
250 248 246 246 244 242 239 235 230 228 228 230 233 234 231 227 224 223 225 229 229 223 215 217 226 230 218 198 191 195 198 198 200 203 208 216 224 224 218 217 221 226 229 233 234 235 238 242 245 249 252 248 242 243 250 256 260 263 264 262 262 263 268 273 271 266 265 268 262 253 254 264 271 271 270 270 268 256 243 239 244 247 247 244 237
252 247 244 244 245 244 241 238 236 235 234 236 237 234 229 225 221 220 228 237 234 222 209 209 219 231 231 213 199 197 197 195 198 201 205 212 222 228 223 217 219 221 223 228 234 239 244 248 252 258 261 259 254 253 253 252 252 256 260 262 263 262 261 262 264 263 262 264 262 255 250 251 259 268 269 266 264 264 258 247 243 244 247 252 252